Regional Weather Roundup
Issued by NWS Sterling, VA

Home | Current Version | Previous Version | Graphics & Text | Print | Product List | Glossary On
Versions: 1 2 3 4 5 6 7 8 9 10 11 12 13 14 15 16 17 18 19 20 21 22 23 24 25 26 27 28 29 30 31 32 33 34 35 36 37 38 39 40 41 42 43 44 45 46 47 48 49 50
000
ASUS41 KLWX 182110
RWRLWX

REGIONAL WEATHER ROUNDUP
NATIONAL WEATHER SERVICE BALTIMORE MD/WASHINGTON DC
400 PM EST THU DEC 18 2014

Note: "FAIR" indicates few or no clouds below 12,000 feet
with no significant weather and/or obstructions to visibility.
 TC=TEMPERATURE CELSIUS

 * =Non NWS site. Station does not report precipitation (e.g. rain,
    snow, etc.), thunder, or fog.

DCZ001-MDZ009-015-VAZ040>042-051-053>054-182200-
WASHINGTON METRO

CITY           SKY/WX    TMP DP  RH WIND       PRES   REMARKS
WASHINGTON NAT MOCLDY    41  22  46 NW13      30.12R
DULLES         MOCLDY    35  22  58 NW13      30.10S WCI  26
ANDREWS AFB    PTCLDY    37  23  56 NW8       30.09R
FT BELVOIR     CLEAR     39  22  48 W8        30.11S
QUANTICO       CLEAR     39  22  50 N8        30.12S
COLLEGE PARK*  PTCLDY    37  23  56 W7        30.09S
LEESBURG*      CLEAR     36  27  69 MISG      30.10S
MANASSAS*      PTCLDY    37  25  60 NW9       30.12R
GAITHERSBURG*  PTCLDY    36  21  55 NW8       30.12R

$$

MDZ006>007-011-014-182200-
BALTIMORE METRO

CITY           SKY/WX    TMP DP  RH WIND       PRES   REMARKS
BWI AIRPORT    MOCLDY    38  22  52 NW10      30.07F
MD SCIENCE CTR   N/A     37  22  54 MISG      30.07F
MARTIN STATE   MOCLDY    39  27  60 W14       30.10R
ANNAPOLIS      PTCLDY    39  24  55 NW12      30.09R
FORT MEADE*    PTCLDY    36  23  60 NW7       30.11S

$$

MDZ012-015-019>023-182200-
MARYLAND EASTERN SHORE

CITY           SKY/WX    TMP DP  RH WIND       PRES   REMARKS
OCEAN CITY     CLEAR     39  23  52 NW12G22   30.06S
SALISBURY      PTCLDY    41  23  48 NW10      30.07S
BAY BRIDGE AP*   N/A     37  23  56 NW12G17   30.09S
CAMBRIDGE*     CLEAR     39  25  56 NW7       30.08S
EASTON*        MOCLDY    39  27  60 NW12G21   30.12R

$$

MDZ017>025-182200-
SOUTHERN MARYLAND

CITY           SKY/WX    TMP DP  RH WIND       PRES   REMARKS
PATUXENT RIVER PTCLDY    40  21  46 NW15      30.09R
ST INIGOES     CLEAR     41  21  44 W10       30.09R
LEONARDTOWN*   CLEAR     39  21  48 MISG        N/A

$$

MDZ003>005-182200-
NORTH CENTRAL MARYLAND

CITY           SKY/WX    TMP DP  RH WIND       PRES   REMARKS
FREDERICK*     CLEAR     37  19  48 NW9       30.12S
HAGERSTOWN APT PTCLDY    35  21  56 NW10      30.07F WCI  27
WESTMINSTER*   PTCLDY    36  21  55 NW8       30.05F

$$

MDZ501>502-182200-
WESTERN MARYLAND

CITY           SKY/WX    TMP DP  RH WIND       PRES   REMARKS
OAKLAND*       CLOUDY    21 N/A N/A W12       30.03R WCI   9
CUMBERLAND*    CLOUDY    32  21  64 NW3       30.15S

$$

VAZ025>031-182200-
SHENANDOAH VALLEY

CITY           SKY/WX    TMP DP  RH WIND       PRES   REMARKS
WINCHESTER*    PTCLDY    34  19  55 NW10      30.10R WCI  26
FRONT ROYAL*   FAIR      34  23  64 N5        30.08F
LURAY*         FAIR      39  27  60 E6        30.06F
NEW MARKET*    FAIR      37  23  56 NE7       30.06S
STAUNTON*      CLOUDY    39  20  46 CALM      30.07S
WAYNESBORO*    CLOUDY    38  21  51 CALM      30.04F

$$

WVZ021-048>050-054>055-182200-
EASTERN WEST VIRGINIA PANHANDLE

CITY           SKY/WX    TMP DP  RH WIND       PRES   REMARKS
MARTINSBURG    PTCLDY    36  19  50 NW8       30.09F
PETERSBURG*    CLOUDY    36  21  55 N7        30.12R

$$

VAZ036>039-050-182200-
CENTRAL FOOTHILLS

CITY           SKY/WX    TMP DP  RH WIND       PRES   REMARKS
CHARLOTTESVILL CLOUDY    42  22  44 S5        30.06S
CULPEPER*      PTCLDY    39  25  56 N5        30.11R
ORANGE*        MOCLDY    41  25  52 N3        30.10R
GORDONSVILLE*  FAIR      42  23  47 NE3       30.07S
WARRENTON*     FAIR      38  29  69 N6        30.09S

$$

VAZ055>057-182200-
NORTH AND CENTRAL PIEDMONT

CITY           SKY/WX    TMP DP  RH WIND       PRES   REMARKS
FREDERICKSBRG* PTCLDY    42  25  50 N6        30.10R
STAFFORD*      PTCLDY    39  22  51 NW8       30.14S

$$

NCZ024-NYZ072-PAZ021-071-VAZ022-071-182200-
OTHER REGIONAL OBSERVATIONS

CITY           SKY/WX    TMP DP  RH WIND       PRES   REMARKS
NEW YORK CITY  MOCLDY    41  23  48 VRB7G25   29.98R
PHILADELPHIA   MOCLDY    40  23  50 NW15G24   30.04R
PITTSBURGH     CLOUDY    29  21  72 W6        30.15R
ROANOKE        MOCLDY    42  22  44 SW5       30.08F
RICHMOND       MOCLDY    45  21  38 N9        30.09S
RALEIGH        MOCLDY    49  21  33 CALM      30.09S

$$

ANZ530>537-182200-
MARINE OBSERVATIONS

STATION/POSITION TIME  TEMP    WIND        PRES
                       AIR SEA DIR/SP/G
                 (UTC) (F)     (DEG/KT/KT) (MB)
THOMAS PT LIGHT  2100   38 42  330/ 10/ 12 1020.0R
BALT KEY BRIDGE  2100   38     290/ 16/ 18 1018.4F
COVE POINT       2100   39     330/ 12/ 15 1018.7R
LEWISETTA        2100   40 44  330/  9/ 12 1018.7F
SOLOMONS ISLAND  2100      44                N/A
PINEY POINT      2100          330/ 12/ 13   N/A

$$



USA.gov is the U.S. government's official web portal to all federal, state and local government web resources and services.